POLYITAN-2-SAU (42732 NORAD) Tracking and Keplerian Element Data

This shows tracking and keplerian element data for the satellite.

Feedback or suggestion? Click here.




ElementValue
Catalog42732
NamePOLYITAN-2-SAU
Epoch Orbit6519
Epoch Day198.57653443
Epoch Year2018
RAAN199.6371
Inclination51.6327
Eccentricity0.000487
Argument of Perigee322.6079
Mean Anonmoly37.458
Mean Motion15.73234183
Decay Rate0.00032021
L11 42732U 98067MM 18198.57653443 .00032021 00000-0 23087-3 0 9993
L22 42732 51.6327 199.6371 0004870 322.6079 37.4580 15.73234183 65193

Live tracking and technical data element details for POLYITAN-2-SAU (NORAD 42732). POLYITAN-2-SAU can be tracked NOW for your location showing map with azimuth and elevation plus other details from your city location.

Track the satellite on the map from your city or location and see movement details for azimuth, elevation, latitude, longitude, range, height, and movement on the map or in text.







IsCatalogInMostPopularTable: catalog: 42732, numindb: 97
Update: records affected: 1



GetName: 42732 POLYITAN-2-SAU

Hit Count: updated at: Fri, 20 Jul 2018 20:34:01 GMT